Temp
-9 -9 -9 -9 -8 -8 -8 -8 -8 -8 -9 -6 -7 -5 -6 -6 -6 -6 -6 -6 -5 -5 -5 -5 -5 -5 -5 -5 -5 -5 -5 -5 -5 -5 -5 -6 -6 -6 -6 -7 -7 -7 -8 -8
-9 -9 -9 -9 -8 -8 -8 -8 -8 -8 -8 -8 -7 -7 -7 -6 -6 -6 -6 -6 -5 -5 -5 -5 -5 -5 -5 -5 -6 -6 -5 -6 -6 -6 -6 -6 -6 -6 -7 -7 -7 -8 -8 -8
-9 -9 -10 -9 -7 -8 -8 -8 -8 -8 -7 -8 -7 -7 -7 -7 -7 -6 -6 -6 -6 -6 -6 -6 -6 -5 -5 -5 -6 -6 -5 -6 -6 -6 -7 -7 -7 -7 -7 -8 -8 -8 -8 -8
-10 -10 -9 -8 -9 -8 -8 -8 -8 -8 -8 -8 -7 -7 -7 -8 -7 -7 -7 -6 -6 -6 -6 -6 -6 -6 -6 -6 -6 -6 -6 -6 -6 -6 -7 -7 -7 -7 -8 -8 -8 -8 -8 -9
-11 -10 -9 -9 -9 -9 -9 -8 -8 -8 -7 -7 -7 -7 -7 -7 -7 -7 -7 -7 -7 -6 -6 -6 -6 -6 -6 -6 -6 -6 -6 -7 -7 -6 -6 -7 -7 -7 -7 -7 -8 -8 -9 -8
-11 -11 -10 -9 -10 -9 -9 -9 -8 -8 -8 -7 -7 -7 -8 -7 -6 -6 -6 -7 -6 -6 -6 -6 -7 -7 -7 -6 -6 -6 -6 -6 -6 -7 -7 -6 -7 -7 -8 -8 -8 -9 -8 -7
-12 -12 -11 -11 -11 -10 -10 -9 -9 -8 -8 -8 -8 -7 -7 -7 -7 -7 -7 -7 -7 -7 -6 -6 -7 -7 -7 -7 -7 -7 -6 -7 -7 -8 -7 -7 -7 -8 -8 -8 -8 -8 -8 -8
-13 -13 -11 -12 -11 -11 -12 -9 -9 -9 -8 -8 -8 -8 -8 -7 -7 -7 -7 -7 -7 -7 -7 -7 -7 -6 -7 -7 -6 -6 -6 -7 -8 -7 -8 -8 -8 -7 -8 -8 -8 -8 -8 -8
-14 -14 -13 -12 -11 -11 -11 -11 -10 -9 -9 -8 -8 -8 -8 -7 -7 -7 -7 -7 -6 -6 -7 -7 -7 -6 -6 -6 -6 -6 -6 -6 -7 -7 -7 -8 -7 -8 -8 -8 -8 -8 -8 -8
-14 -14 -14 -13 -13 -12 -11 -11 -10 -10 -9 -9 -8 -8 -8 -8 -7 -7 -7 -7 -6 -6 -6 -6 -7 -7 -6 -6 -6 -6 -6 -6 -6 -6 -7 -8 -8 -8 -8 -8 -8 -8 -8 -8
-14 -14 -15 -14 -13 -12 -12 -11 -11 -10 -9 -9 -9 -8 -8 -8 -8 -7 -7 -6 -6 -6 -6 -6 -6 -7 -7 -7 -7 -6 -6 -6 -6 -7 -7 -7 -7 -8 -8 -8 -8 -8 -8 -8
-13 -15 -15 -14 -15 -14 -12 -11 -11 -10 -9 -9 -9 -9 -8 -8 -8 -7 -7 -6 -6 -6 -6 -6 -6 -7 -7 -7 -7 -6 -6 -6 -7 -7 -7 -6 -7 -8 -8 -8 -8 -8 -8 -8
-13 -14 -15 -15 -15 -13 -11 -10 -10 -9 -9 -9 -9 -9 -9 -8 -8 -7 -7 -7 -6 -6 -6 -6 -6 -7 -6 -7 -7 -7 -7 -6 -6 -7 -7 -7 -8 -8 -8 -8 -9 -8 -8 -9
-13 -13 -14 -15 -14 -12 -11 -10 -10 -9 -9 -10 -9 -9 -9 -8 -8 -7 -7 -7 -6 -6 -6 -6 -6 -7 -7 -7 -7 -7 -7 -7 -7 -7 -7 -8 -8 -8 -8 -9 -9 -9 -9 -10
-12 -13 -13 -14 -14 -12 -11 -10 -9 -10 -10 -10 -9 -9 -8 -8 -8 -8 -7 -7 -6 -6 -6 -7 -7 -7 -7 -7 -7 -7 -7 -7 -7 -8 -8 -8 -8 -9 -9 -8 -9 -9 -10 -10
-12 -11 -13 -13 -13 -11 -10 -10 -10 -10 -9 -9 -9 -9 -9 -8 -8 -7 -7 -7 -7 -7 -7 -7 -7 -8 -7 -8 -7 -7 -7 -8 -8 -8 -9 -8 -8 -8 -9 -9 -10 -10 -9 -9
-11 -12 -12 -13 -13 -12 -11 -10 -10 -10 -10 -10 -9 -9 -9 -9 -8 -8 -8 -8 -8 -8 -8 -9 -9 -9 -9 -8 -8 -8 -8 -8 -8 -8 -9 -9 -9 -9 -10 -10 -10 -10 -9 -10
-11 -12 -13 -14 -13 -13 -12 -11 -11 -10 -10 -10 -9 -9 -9 -9 -9 -9 -9 -9 -10 -10 -10 -9 -10 -9 -9 -8 -9 -9 -9 -9 -9 -9 -9 -9 -10 -10 -10 -10 -10 -9 -10 -10
-12 -12 -14 -14 -14 -13 -12 -11 -10 -10 -10 -10 -10 -10 -10 -10 -10 -10 -10 -10 -10 -10 -9 -9 -9 -9 -10 -9 -10 -9 -9 -9 -9 -9 -9 -9 -10 -10 -10 -10 -10 -10 -10 -10
-11 -12 -13 -13 -13 -13 -12 -11 -11 -10 -10 -10 -10 -11 -11 -11 -11 -11 -11 -11 -11 -10 -10 -11 -10 -9 -10 -9 -10 -9 -10 -10 -10 -10 -10 -9 -9 -9 -10 -10 -10 -10 -11 -12
-11 -11 -12 -12 -12 -12 -12 -11 -11 -11 -11 -11 -11 -11 -11 -11 -11 -10 -11 -10 -11 -10 -10 -10 -10 -10 -11 -10 -10 -10 -10 -12 -11 -10 -10 -10 -10 -10 -10 -11 -11 -11 -12 -13
-11 -11 -11 -12 -12 -12 -10 -11 -11 -11 -11 -11 -12 -11 -11 -11 -11 -11 -12 -11 -11 -11 -11 -10 -11 -13 -12 -11 -11 -10 -10 -10 -10 -10 -10 -10 -11 -11 -11 -12 -12 -13 -13 -14
-11 -11 -11 -11 -10 -11 -11 -11 -11 -11 -11 -11 -11 -11 -12 -13 -13 -12 -12 -12 -12 -12 -11 -11 -11 -11 -11 -10 -10 -10 -11 -11 -11 -11 -11 -11 -12 -12 -12 -13 -13 -13 -14 -14
-11 -11 -11 -11 -11 -11 -11 -11 -11 -11 -11 -12 -12 -12 -12 -12 -12 -12 -11 -11 -11 -11 -11 -11 -11 -11 -11 -11 -11 -11 -11 -11 -11 -12 -12 -13 -13 -13 -13 -14 -14 -14 -14 -15
-11 -12 -12 -12 -12 -12 -11 -11 -11 -12 -12 -12 -13 -12 -12 -12 -12 -12 -12 -12 -11 -11 -11 -11 -11 -11 -11 -11 -11 -12 -12 -12 -13 -13 -13 -13 -13 -13 -13 -14 -14 -15 -15 -15
-11 -11 -11 -11 -11 -12 -12 -12 -12 -12 -12 -12 -12 -12 -12 -12 -12 -12 -12 -12 -12 -12 -11 -11 -11 -12 -12 -12 -12 -12 -13 -13 -13 -13 -13 -13 -13 -13 -14 -14 -15 -15 -16 -16
-11 -12 -11 -11 -12 -12 -12 -12 -12 -12 -12 -12 -12 -12 -12 -12 -12 -12 -12 -12 -12 -12 -12 -12 -12 -13 -13 -13 -13 -13 -13 -13 -13 -13 -13 -14 -14 -14 -14 -15 -15 -16 -17 -18
Height
5839 5842 5847 5849 5851 5854 5855 5860 5860 5866 5867 5874 5879 5879 5884 5887 5891 5895 5898 5901 5904 5906 5908 5909 5910 5911 5912 5913 5914 5915 5916 5916 5917 5918 5918 5918 5918 5917 5917 5917 5916 5915 5914 5913
5824 5827 5830 5830 5836 5841 5843 5847 5848 5852 5854 5863 5868 5870 5874 5878 5881 5885 5890 5894 5896 5899 5902 5904 5905 5906 5906 5908 5909 5911 5912 5914 5914 5914 5915 5915 5914 5914 5913 5912 5911 5910 5909 5908
5810 5813 5813 5812 5823 5826 5829 5833 5836 5836 5845 5852 5854 5859 5864 5868 5872 5877 5880 5885 5889 5892 5895 5896 5898 5901 5902 5903 5903 5905 5906 5907 5910 5911 5910 5910 5909 5909 5908 5907 5906 5904 5901 5901
5793 5794 5789 5804 5805 5809 5814 5818 5821 5825 5831 5832 5841 5850 5854 5856 5861 5866 5870 5875 5879 5883 5886 5889 5891 5893 5895 5897 5898 5900 5901 5901 5902 5903 5903 5903 5903 5903 5903 5901 5897 5891 5891 5890
5774 5776 5780 5786 5787 5795 5795 5803 5804 5811 5813 5821 5828 5836 5844 5844 5849 5854 5859 5864 5870 5874 5877 5879 5882 5885 5887 5889 5891 5892 5895 5896 5897 5895 5894 5895 5896 5896 5894 5892 5889 5886 5882 5875
5762 5759 5761 5775 5773 5772 5780 5782 5790 5798 5800 5806 5814 5820 5824 5831 5839 5842 5847 5852 5858 5863 5867 5870 5872 5875 5877 5880 5883 5886 5887 5887 5888 5889 5888 5889 5888 5887 5886 5884 5879 5874 5877 5871
5743 5738 5745 5756 5754 5757 5763 5776 5774 5783 5787 5792 5798 5805 5812 5816 5825 5831 5835 5840 5844 5849 5854 5858 5861 5864 5866 5866 5872 5873 5877 5878 5878 5879 5880 5881 5879 5878 5875 5873 5871 5868 5865 5864
5726 5725 5728 5738 5737 5744 5743 5753 5760 5768 5774 5779 5785 5790 5798 5802 5808 5814 5821 5825 5831 5836 5841 5845 5850 5854 5857 5860 5862 5865 5869 5869 5866 5867 5870 5870 5870 5868 5866 5866 5863 5861 5860 5858
5709 5710 5711 5717 5722 5720 5729 5737 5746 5754 5761 5767 5773 5778 5785 5791 5794 5799 5803 5810 5816 5822 5829 5834 5839 5842 5845 5850 5854 5855 5858 5860 5856 5859 5859 5859 5861 5860 5857 5856 5853 5851 5849 5846
5689 5695 5695 5698 5698 5703 5712 5721 5731 5740 5747 5755 5761 5766 5773 5779 5783 5787 5791 5796 5802 5810 5816 5821 5827 5832 5836 5839 5842 5845 5847 5849 5850 5850 5849 5849 5849 5848 5847 5846 5844 5841 5839 5835
5672 5676 5676 5681 5680 5684 5695 5706 5717 5725 5735 5743 5750 5755 5760 5767 5774 5776 5780 5783 5789 5795 5802 5808 5814 5820 5825 5828 5832 5834 5836 5838 5839 5838 5838 5838 5840 5838 5837 5836 5834 5832 5829 5823
5660 5660 5658 5662 5662 5669 5678 5690 5703 5713 5724 5732 5739 5745 5750 5756 5761 5766 5770 5774 5778 5783 5788 5793 5800 5807 5812 5816 5821 5824 5825 5826 5828 5829 5828 5828 5828 5826 5824 5824 5822 5820 5817 5811
5645 5643 5643 5647 5647 5653 5662 5677 5691 5704 5715 5724 5729 5735 5740 5746 5750 5756 5761 5765 5768 5772 5776 5781 5787 5793 5798 5804 5808 5811 5813 5814 5816 5815 5814 5814 5814 5812 5810 5808 5808 5806 5804 5800
5633 5631 5634 5634 5636 5645 5656 5670 5684 5695 5707 5715 5720 5727 5733 5738 5743 5747 5751 5756 5760 5763 5767 5771 5775 5780 5786 5791 5795 5798 5800 5799 5799 5798 5798 5800 5800 5797 5798 5798 5795 5795 5790 5787
5621 5619 5621 5622 5626 5634 5647 5661 5675 5689 5699 5707 5714 5719 5726 5731 5736 5739 5743 5747 5750 5754 5757 5760 5764 5769 5774 5779 5783 5788 5791 5791 5791 5786 5783 5784 5781 5785 5788 5785 5783 5780 5776 5772
5614 5611 5611 5615 5622 5629 5641 5656 5670 5682 5693 5702 5708 5714 5720 5724 5727 5731 5735 5738 5742 5746 5749 5751 5755 5759 5763 5768 5771 5775 5778 5780 5779 5779 5777 5776 5779 5779 5775 5772 5771 5768 5765 5760
5607 5603 5605 5608 5615 5626 5638 5651 5665 5680 5689 5697 5704 5709 5714 5718 5721 5724 5727 5730 5734 5737 5739 5742 5746 5751 5756 5758 5763 5766 5766 5769 5770 5770 5771 5768 5766 5765 5764 5762 5758 5755 5750 5744
5614 5607 5607 5612 5618 5625 5637 5651 5665 5677 5686 5693 5698 5704 5708 5711 5714 5717 5720 5723 5727 5728 5727 5728 5734 5741 5746 5750 5753 5755 5757 5760 5760 5760 5757 5756 5756 5754 5751 5749 5746 5740 5735 5731
5627 5623 5619 5619 5623 5631 5643 5656 5667 5677 5684 5689 5695 5700 5705 5708 5709 5710 5712 5717 5719 5718 5713 5710 5719 5731 5738 5742 5744 5747 5746 5746 5748 5748 5746 5746 5744 5743 5741 5736 5730 5726 5723 5719
5636 5632 5631 5633 5637 5643 5651 5661 5670 5678 5682 5688 5694 5698 5700 5702 5704 5707 5710 5713 5715 5717 5715 5718 5723 5726 5728 5727 5733 5736 5737 5737 5738 5737 5737 5737 5735 5730 5725 5721 5718 5714 5710 5706
5645 5640 5645 5646 5649 5654 5660 5666 5673 5679 5685 5689 5693 5696 5699 5702 5704 5707 5709 5711 5713 5717 5719 5721 5724 5723 5722 5724 5726 5727 5731 5731 5731 5730 5727 5725 5722 5718 5714 5711 5707 5702 5699 5695
5659 5659 5658 5658 5660 5665 5671 5675 5679 5684 5688 5692 5695 5698 5701 5702 5703 5704 5705 5708 5709 5713 5715 5715 5716 5717 5720 5721 5723 5725 5726 5724 5721 5721 5719 5716 5712 5709 5706 5702 5698 5694 5691 5688
5667 5667 5665 5666 5667 5673 5675 5682 5685 5689 5692 5695 5698 5700 5701 5701 5702 5703 5705 5708 5711 5713 5713 5713 5716 5717 5716 5717 5718 5717 5715 5713 5713 5712 5708 5705 5703 5700 5696 5693 5689 5685 5680 5675
5679 5680 5680 5681 5682 5684 5686 5689 5691 5694 5696 5699 5703 5702 5704 5705 5706 5706 5706 5707 5706 5707 5707 5709 5710 5710 5710 5711 5711 5711 5710 5708 5706 5703 5701 5698 5695 5691 5687 5683 5678 5672 5667 5662
5690 5690 5690 5691 5691 5693 5695 5696 5698 5699 5702 5704 5705 5706 5707 5707 5707 5706 5706 5706 5708 5709 5709 5710 5711 5712 5711 5709 5707 5705 5704 5702 5699 5696 5692 5689 5686 5682 5677 5673 5667 5662 5657 5651
5697 5696 5697 5697 5698 5699 5701 5702 5702 5703 5704 5705 5706 5706 5707 5708 5708 5709 5710 5710 5711 5712 5712 5712 5710 5708 5707 5705 5702 5700 5697 5695 5692 5689 5687 5684 5680 5675 5671 5664 5657 5652 5646 5639
5701 5702 5702 5703 5703 5704 5705 5705 5707 5708 5709 5709 5710 5710 5709 5708 5709 5710 5710 5709 5708 5707 5708 5707 5706 5704 5703 5701 5700 5697 5694 5692 5690 5687 5683 5678 5673 5669 5661 5653 5648 5641 5634 5628
Wind_Speed
52 50 47 48 48 44 45 43 43 32 29 36 35 40 37 35 34 33 32 29 22 23 24 25 21 16 14 15 14 14 12 9 8 5 5 6 5 6 5 5 6 9 13 16
55 55 56 56 50 51 50 50 48 47 47 36 33 36 35 38 37 36 35 34 24 22 25 25 25 21 20 19 15 17 13 11 12 8 6 10 10 9 10 10 13 16 18 19
57 55 55 60 52 52 54 53 53 56 50 42 41 38 34 34 35 36 38 37 34 27 28 27 25 25 24 22 22 19 19 20 15 14 14 13 13 15 15 17 21 25 25 22
52 53 62 57 56 55 53 53 55 56 53 57 50 41 38 37 38 38 36 38 38 33 34 33 31 29 28 27 25 25 23 21 23 23 25 24 17 16 19 25 29 36 32 31
52 54 53 52 55 53 55 52 55 53 55 53 52 51 45 45 43 44 42 38 43 42 37 41 38 36 35 33 29 29 30 30 28 32 34 30 28 26 30 33 39 45 35 43
51 54 56 48 50 55 51 55 54 51 53 51 48 47 49 52 49 47 49 46 49 46 45 43 44 41 44 40 36 34 35 36 34 35 38 37 32 39 41 38 47 54 55 46
47 53 55 49 53 54 50 48 52 47 48 46 47 47 45 48 48 51 50 53 51 46 50 51 50 47 50 44 46 41 39 37 41 42 38 42 42 42 47 42 47 54 48 46
44 45 53 50 55 52 50 51 52 49 45 43 41 41 39 43 47 50 56 54 57 54 50 51 53 54 50 46 42 41 44 41 48 40 42 48 46 50 53 45 49 50 52 52
45 44 44 48 52 58 54 50 51 51 48 47 45 43 40 40 43 49 54 57 58 60 58 53 46 46 50 47 51 48 46 50 55 46 54 54 50 49 57 43 46 51 54 58
48 45 41 38 49 59 56 51 51 50 50 50 48 46 42 40 42 45 51 55 54 57 59 60 56 50 46 45 46 45 45 43 46 48 56 56 47 54 55 51 51 52 56 56
44 42 45 41 47 58 57 52 48 48 48 46 44 44 42 39 37 41 44 49 53 52 50 58 60 57 52 46 47 44 49 50 50 48 54 50 50 51 54 53 53 53 53 55
35 37 43 41 47 51 56 54 47 45 43 42 41 40 38 37 36 36 38 41 45 48 51 52 53 56 56 52 47 43 45 43 49 51 55 57 57 55 55 54 54 47 54 55
21 34 34 32 40 53 55 50 46 41 40 37 37 36 36 36 37 36 36 35 37 40 43 45 49 53 55 55 48 48 46 47 52 56 55 54 56 60 58 55 44 49 55 57
25 16 22 26 25 46 47 43 39 38 34 34 35 35 36 36 35 35 36 35 36 37 38 38 43 49 54 52 55 50 47 49 46 47 49 50 54 51 46 47 45 54 54 53
23 16 14 24 30 44 48 42 37 33 31 28 26 30 31 32 31 34 35 34 36 37 38 38 37 46 50 54 59 54 53 47 47 45 50 49 46 49 52 47 49 54 53 58
23 24 17 18 29 44 47 42 37 33 28 24 24 26 26 27 29 30 33 33 34 34 37 39 38 43 52 52 55 53 50 47 51 53 49 42 47 48 44 46 48 47 52 55
18 8 4 24 25 38 45 42 36 29 24 20 20 21 22 23 25 26 28 28 29 33 37 39 37 38 42 47 51 54 54 56 55 53 57 41 41 44 49 53 57 56 54 51
23 17 10 7 14 24 35 36 31 27 24 21 22 20 20 19 19 18 19 21 24 28 34 39 39 40 41 48 49 45 45 47 47 47 40 41 43 46 48 49 50 50 50 51
17 22 19 21 24 28 30 31 29 27 25 24 21 19 17 14 18 22 26 28 31 26 23 10 23 34 43 40 54 51 56 58 57 52 43 46 42 42 47 48 50 50 51 52
28 21 24 27 27 29 29 28 26 23 22 21 19 18 23 21 25 24 26 27 26 27 23 26 23 32 29 39 43 41 44 46 45 32 31 38 41 43 46 46 47 48 47 45
24 15 30 33 32 30 27 25 23 19 17 19 19 18 16 16 16 23 26 28 33 29 21 32 32 33 31 27 27 37 38 24 27 31 34 38 39 40 41 44 44 42 41 42
18 23 24 27 31 30 29 26 24 21 21 21 19 18 12 8 13 19 20 15 15 10 9 8 8 2 4 8 12 18 23 25 26 29 32 34 35 34 35 34 34 34 35 37
24 18 20 17 22 25 28 29 23 31 28 21 18 13 16 15 14 15 14 11 9 8 6 2 6 8 10 12 15 17 19 20 22 25 27 29 32 33 33 35 36 37 36 34
29 29 29 29 26 25 25 28 28 27 22 17 13 11 11 10 9 9 8 6 3 1 1 3 5 7 8 11 13 15 18 23 25 27 28 29 31 33 34 35 36 38 39 40
20 21 21 19 18 22 20 19 19 17 13 12 11 10 8 7 7 6 5 3 2 1 2 2 3 6 9 13 16 19 22 24 26 27 27 28 30 33 35 37 39 42 43 43
16 18 16 15 16 16 16 13 13 15 15 13 10 9 8 8 8 7 7 7 6 3 4 8 12 15 18 19 20 22 22 21 23 25 27 28 30 32 34 37 39 42 44 44
11 12 14 15 16 15 12 12 12 11 11 11 11 11 12 12 10 6 4 5 8 11 14 15 16 17 17 17 16 18 21 22 23 25 26 26 27 29 33 37 40 41 40 38
Wind_Direction
259 255 247 247 248 244 243 242 244 243 245 239 242 234 239 233 232 227 233 237 241 245 250 250 244 234 234 245 251 251 239 201 182 166 157 164 187 210 229 246 271 284 290 295
255 255 256 254 244 243 245 241 241 242 244 247 240 245 244 242 235 231 229 232 236 234 238 246 255 233 231 236 237 222 211 213 207 216 247 239 250 251 251 265 269 271 276 281
258 258 255 253 250 248 243 243 246 244 247 247 237 237 239 236 233 228 229 229 233 231 226 231 236 238 243 245 244 244 233 229 238 251 259 270 261 245 249 262 268 271 267 270
259 256 256 256 254 254 250 249 247 247 248 247 242 236 233 233 231 227 229 230 227 229 223 220 228 233 236 241 246 241 244 253 261 260 270 275 262 262 267 263 266 259 259 260
257 258 259 256 259 254 254 249 247 246 247 248 247 245 239 237 235 230 227 226 226 227 225 225 224 229 231 237 243 246 245 248 253 261 268 269 271 259 268 273 277 277 290 267
259 256 255 257 258 258 254 249 248 245 246 246 246 244 240 238 236 236 227 220 223 225 225 225 226 230 231 232 238 244 249 258 259 258 274 275 270 271 280 277 282 289 296 311
259 257 254 250 255 254 252 250 245 242 242 242 243 244 243 242 233 233 235 225 222 220 224 229 236 233 236 234 236 231 243 255 256 252 263 268 267 267 269 276 287 287 302 311
268 265 254 251 250 250 250 245 241 240 236 237 238 238 235 237 234 232 228 232 226 225 227 229 233 236 236 232 247 239 237 246 251 265 262 262 267 270 267 283 290 290 301 302
261 266 264 250 246 245 246 246 239 237 238 238 240 241 240 236 234 233 233 230 232 231 226 227 228 233 232 236 238 242 252 253 266 256 258 262 268 268 267 288 284 287 294 296
262 254 257 258 245 243 242 240 237 236 235 238 242 245 243 239 234 233 234 237 236 233 235 233 229 231 230 230 232 237 241 248 257 256 254 259 262 266 271 276 277 281 288 294
265 254 249 257 250 235 237 237 233 232 233 234 238 240 239 240 236 235 235 237 240 241 237 236 236 236 233 237 239 250 249 248 253 253 259 262 262 262 266 268 273 279 285 287
283 254 249 251 251 227 230 232 228 226 228 229 231 234 236 237 238 238 236 236 239 240 240 239 237 235 237 240 245 244 245 244 249 253 257 260 260 258 259 264 269 280 282 291
292 266 268 266 251 220 220 223 221 219 220 224 227 227 229 232 239 241 242 241 238 237 238 239 239 237 237 238 238 239 246 245 247 253 253 251 256 259 255 261 268 276 283 288
279 275 265 268 242 222 220 221 218 218 214 215 222 225 226 233 238 242 244 244 245 244 243 239 236 237 237 238 233 237 241 245 243 244 244 252 254 255 268 287 277 281 285 293
280 267 228 239 217 210 215 212 206 207 211 214 215 223 225 232 237 242 243 243 243 245 245 243 236 235 232 231 231 234 241 245 250 253 248 246 265 278 282 278 273 278 284 289
304 264 215 218 218 205 209 212 208 205 208 211 215 222 226 230 233 236 240 244 245 246 249 251 245 235 232 232 234 237 242 249 248 253 268 279 277 274 274 275 284 293 293 292
344 329 261 223 202 204 204 207 208 207 210 210 212 218 223 231 237 237 241 246 247 248 250 248 239 233 233 235 237 242 245 248 253 260 260 262 270 272 274 280 287 291 294 298
35 45 77 141 184 185 193 196 200 201 198 202 208 218 228 233 239 238 230 231 235 238 241 237 224 228 230 237 238 244 248 254 253 255 260 269 273 280 288 290 291 295 297 296
47 60 88 111 136 146 165 177 182 185 190 200 210 212 218 218 224 231 218 220 227 244 248 223 223 225 227 242 244 244 251 244 247 256 265 270 283 286 288 292 294 294 293 292
76 94 100 103 117 131 146 154 161 174 186 193 196 199 208 221 223 224 225 233 246 261 278 278 263 271 266 245 255 256 263 257 255 268 282 283 286 287 289 290 290 291 289 287
42 62 91 98 113 122 134 145 155 163 175 182 181 183 193 211 227 238 239 247 252 264 260 259 262 270 260 242 254 254 270 280 279 280 282 283 284 288 290 289 289 290 290 290
73 88 112 127 128 125 126 125 129 126 122 129 148 173 168 213 233 246 248 222 166 175 199 223 231 20 284 284 281 274 274 282 288 289 290 292 295 295 295 299 303 303 301 300
86 103 92 121 103 133 129 131 133 135 142 140 146 154 144 120 108 109 114 127 161 185 198 216 252 270 283 283 283 285 290 293 290 288 292 293 296 299 302 303 302 300 299 298
74 95 90 107 107 120 119 122 128 127 123 123 127 128 134 145 149 152 157 163 158 148 278 283 300 308 308 301 294 289 288 289 294 300 301 304 307 307 307 307 307 306 304 300
81 73 71 76 97 101 106 119 124 135 129 142 137 136 140 141 133 115 103 84 64 35 12 349 306 287 287 292 298 303 307 310 313 316 317 316 315 314 313 311 309 307 303 300
88 92 99 100 106 121 130 137 133 141 139 142 136 132 129 123 113 106 99 91 77 49 336 319 321 324 323 321 320 321 323 324 322 320 318 317 317 318 316 314 311 306 303 300
82 89 100 106 112 119 122 122 130 132 134 133 126 112 101 99 98 96 71 24 355 343 329 327 329 328 325 324 325 324 323 322 320 317 317 317 321 321 321 319 314 311 307 301